CO-66
1 32791U 08021J 14298.68348784 .00005866 00000-0 65649-3 0 646
2 32791 097.6853 346.9025 0015842 113.1749 247.1138 14.87168478351444
RS-30
1 32953U 08025A 14299.50718654 .00000046 00000-0 25825-3 0 4134
2 32953 082.4993 119.5667 0018492 228.6510 144.9521 12.43051903291570
METEOR-M
1 35865U 09049A 14299.18626300 .00000157 00000-0 90272-4 0 213
2 35865 098.5349 342.5286 0003513 086.4156 314.6572 14.21942082264956
RS-38
1 35869U 09049E 14299.19601730 .00000088 00000-0 58866-4 0 9279
2 35869 098.5270 342.2766 0005611 081.1389 324.8345 14.22236777264997
JUGNU
1 37839U 11058B 14298.80841455 .00000663 00000-0 21232-3 0 7226
2 37839 019.9601 183.2544 0018787 344.3573 080.8416 14.12356867157042
SRMSAT
1 37841U 11058D 14299.14415088 .00000495 00000-0 12809-3 0 7252
2 37841 019.9708 203.1757 0011812 282.2805 222.1654 14.10389905156873
RAX-2
1 37853U 11061D 14299.14152622 .00011082 00000-0 73256-3 0 9452
2 37853 101.7032 031.3456 0210801 037.4504 026.8094 14.91271915162164
AUBIESAT
1 37854U 11061E 14298.93622174 .00011683 00000-0 74660-3 0 9449
2 37854 101.7081 033.3840 0207904 034.4244 018.9216 14.92789352162209
HRBE
1 37855U 11061F 14299.31519077 .00012829 00000-0 82981-3 0 9640
2 37855 101.7073 033.0929 0210392 035.0185 326.4649 14.91992610162212
RS-39
1 38051U 11062C 14288.65876392 .70201582 12497-4 27925-2 0 413
2 38051 051.5964 324.1908 0006422 269.6897 186.8903 16.43533377153081
E-STAR
1 38079U 12006C 14299.24277459 .00277978 21480-4 21204-2 0 408
2 38079 069.4428 000.4410 0256294 163.7389 197.2270 15.39472200143375
GOLIAT
1 38085U 12006J 14299.37535474 .00257316 17890-4 22657-2 0 4886
2 38085 069.4438 010.8674 0290736 168.5952 192.2007 15.29956425143107
HORYU-2
1 38340U 12025D 14299.42122494 .00004743 00000-0 74523-3 0 51
2 38340 098.2820 258.9851 0013702 116.4692 243.7923 14.73007894131108
RS-40
1 38735U 12041C 14299.12695930 .00000021 00000-0 79195-4 0 7226
2 38735 082.4786 205.8981 0016806 333.5861 026.4360 12.42562449101839
PROITERES
1 38756U 12047B 14299.45140942 .00001801 00000-0 27408-3 0 3489
2 38756 098.2261 029.8907 0011556 328.7599 031.2921 14.75201465114521
BEESAT-3
1 39134U 13015E 14298.47706918 .00015897 00000-0 10524-2 0 7493
2 39134 064.8755 085.7371 0036075 285.7520 073.9623 15.06956631 83270
BEESAT-2
1 39136U 13015G 14298.86697214 .00014708 00000-0 99669-3 0 7337
2 39136 064.8754 085.4269 0036314 285.8761 073.8358 15.06127599 83310
LO-75
1 39382U 13064C 14295.69194059 .07301741 00000-0 36367-2 0 4875
2 39382 040.4713 030.2705 0002289 341.7175 018.4586 16.19795749470823
ZACUBE-1
1 39417U 13066B 14299.14638555 .00003552 00000-0 47742-3 0 4494
2 39417 097.7617 005.2071 0062021 176.9530 183.2072 14.78549912 50042
TRITON-1
1 39427U 13066M 14298.72982246 .00003930 00000-0 65945-3 0 3019
2 39427 097.7494 357.9604 0117516 194.3035 165.4833 14.65737130 49513
DELFIN3XT
1 39428U 13066N 14298.42163401 .00005958 00000-0 10213-2 0 3043
2 39428 097.7490 356.5098 0127392 198.4886 161.1667 14.63858875 49385
GOMX-1
1 39430U 13066Q 14299.20503293 .00003697 00000-0 70325-3 0 9315
2 39430 097.7430 353.9011 0155498 205.6907 153.6510 14.57167927 49298
MO-76
1 39436U 13066W 14299.12522057 .00032875 00000-0 30840-2 0 3851
2 39436 097.7680 010.9030 0024936 174.6593 185.4897 14.93666568 50399
LO-74
1 39440U 13066AA 14299.14940777 .00003739 00000-0 55202-3 0 2969
2 39440 097.7575 002.4951 0083836 182.4770 177.6035 14.73460295 49867
PUCPSAT-1
1 39442U 13066AC 14299.10543861 .00005576 00000-0 62547-3 0 2950
2 39442 097.7676 009.4084 0034587 173.1396 187.0301 14.86758585 49075
SHINAISAT
1 39572U 14009A 14299.42154480 .00296715 40014-4 86503-3 0 3603
2 39572 065.0002 302.2218 0017723 288.1094 071.8140 15.92335212 37791
TEIKYOSAT
1 39576U 14009E 14297.85867254 .09345816 76764-5 25176-3 0 4374
2 39576 064.9818 300.5833 0008491 317.3597 044.3862 16.45008906 37698
CO-77
1 39577U 14009F 14244.78324653 .10543803 76292-5 32273-3 0 3795
2 39577 064.9920 123.7668 0014904 269.7208 091.1897 16.43552757 29380
SPROUT
1 39770U 14029E 14298.51436888 .00002962 00000-0 37140-3 0 1729
2 39770 097.8733 033.6940 0008655 243.9825 116.0500 14.82920808 22848
POPSAT-HIP1
1 40028U 14033U 14299.45644390 .00003981 00000-0 46633-3 0 3951
2 40028 097.9709 194.3342 0013226 223.1258 136.8919 14.85542946 19061
EO-80
1 40032U 14033Y 14299.27427751 .00003654 00000-0 43120-3 0 3838
2 40032 097.9697 194.0443 0011281 219.9726 140.0685 14.85301595 19041
VELOX-1
1 40057U 14034E 14299.46691021 .00003686 00000-0 56312-3 0 3821
2 40057 098.2406 008.6764 0010397 265.0151 094.9892 14.74397277 17424
DAURIA DX 1
1 40071U 14037C 14299.42072981 .00001745 00000-0 23979-3 0 3540
2 40071 098.3888 355.9335 0007274 270.2090 089.8293 14.79706930 16216
UKUBE-1
1 40074U 14037F 14299.41933868 .00003643 00000-0 48012-3 0 3568
2 40074 098.3902 356.1100 0003466 282.9821 077.1016 14.80775229 16223
CHASQUI-1
1 40117U 98067ET 14299.11531178 .00123836 00000-0 14821-2 0 2269
2 40117 051.6455 168.6759 0006548 207.8706 284.6252 15.60041921 10634
